This demonstration page uses our WeatherBlox Daily Observations layout. Learn more.

Hourly Observations for August 4, 2020

Temp ( °F °C ) Dew Point ( °F °C ) Humidity (%) Winds ( mph kmh ) Pressure ( in mb ) Visibility ( mi km ) Precip ( " mm )
12:15 am 00:15 Mostly Cloudy 64 18 64 18 100 100 S 10 17 30.02 1017 10 16.0934 0 0
12:35 am 00:35 Mostly Cloudy 64 18 64 18 100 100 S 8 13 30.01 1016 10 16.0934 0 0
12:55 am 00:55 Partly Cloudy 64 18 64 18 100 100 S 6 9 30.01 1016 10 16.0934 0 0
1:15 am 01:15 Partly Cloudy 64 18 64 18 100 100 S 6 9 30 1016 10 16.0934 0 0
1:35 am 01:35 Partly Cloudy 64 18 64 18 100 100 S 7 11 29.99 1016 10 16.0934 0 0
1:55 am 01:55 Partly Cloudy 64 18 64 18 100 100 SSE 5 7 29.99 1016 10 16.0934 0 0
2:15 am 02:15 Partly Cloudy 64 18 64 18 100 100 Calm 29.98 1015 10 16.0934 0 0
2:35 am 02:35 Mostly Cloudy 64 18 64 18 100 100 Calm 29.98 1015 10 16.0934 0 0
2:55 am 02:55 Cloudy 64 18 64 18 100 100 Calm 29.97 1015 7 11.26538 0 0
3:15 am 03:15 Cloudy 63 17 63 17 100 100 Calm 29.98 1015 7 11.26538 0 0
3:35 am 03:35 Cloudy 63 17 63 17 100 100 Calm 29.96 1014 7 11.26538 0 0
3:55 am 03:55 Cloudy 63 17 63 17 100 100 Calm 29.95 1014 5 8.0467 0 0
4:15 am 04:15 Cloudy 63 17 63 17 100 100 Calm 29.95 1014 5 8.0467 0 0
4:35 am 04:35 Cloudy 63 17 63 17 100 100 ENE 5 7 29.93 1013 5 8.0467 0 0
4:55 am 04:55 Cloudy 63 17 63 17 100 100 E 5 7 29.91 1013 7 11.26538 0 0
5:15 am 05:15 Cloudy 63 17 63 17 100 100 ENE 7 11 29.9 1012 7 11.26538 0 0
5:35 am 05:35 Cloudy 63 17 63 17 100 100 NE 8 13 29.88 1012 7 11.26538 0 0
5:55 am 05:55 Cloudy 63 17 63 17 100 100 ENE 6 9 29.89 1012 5 8.0467 0 0
6:15 am 06:15 Cloudy 63 17 63 17 100 100 NE 6 9 29.88 1012 4 6.43736 0 0
6:35 am 06:35 Cloudy 63 17 63 17 100 100 NNE 6 9 29.86 1011 3 4.82802 0 0
6:55 am 06:55 Cloudy 63 17 63 17 100 100 NE 8 13 29.86 1011 2.5 4.02335 0 0
7:15 am 07:15 Cloudy 63 17 63 17 100 100 NNE 9 15 29.82 1010 3 4.82802 0 0
7:35 am 07:35 Cloudy 63 17 63 17 100 100 NNE 9 15 29.81 1009 2.5 4.02335 0 0
7:55 am 07:55 Cloudy 63 17 63 17 100 100 NNE 9 15 29.8 1009 4 6.43736 0 0
8:15 am 08:15 Cloudy 63 17 63 17 100 100 N 13 20 29.78 1008 4 6.43736 0 0
8:35 am 08:35 Cloudy 63 17 63 17 100 100 N 12 19 29.78 1008 4 6.43736 0 0
8:55 am 08:55 Cloudy 63 17 63 17 100 100 NNE 13 20 29.76 1008 3 4.82802 0 0
9:15 am 09:15 Cloudy 63 17 63 17 100 100 NNE 13 20 29.75 1007 7 11.26538 0 0
9:35 am 09:35 Cloudy 63 17 63 17 100 100 NNE 12 19 29.73 1007 10 16.0934 0 0
9:55 am 09:55 Cloudy 63 17 63 17 100 100 N 13 20 29.73 1007 10 16.0934 0 0
10:15 am 10:15 Cloudy 63 17 63 17 100 100 NNW 16 26 29.74 1007 10 16.0934 0 0
10:35 am 10:35 Cloudy 63 17 63 17 100 100 NW 16 26 29.77 1008 7 11.26538 0 0
10:55 am 10:55 Cloudy 64 18 64 18 100 100 NW 13 20 29.77 1008 7 11.26538 0 0
11:15 am 11:15 Cloudy 64 18 64 18 100 100 NW 13 20 29.78 1009 10 16.0934 0 0
11:35 am 11:35 Cloudy 64 18 64 18 100 100 NW 9 15 29.79 1009 10 16.0934 0 0
11:55 am 11:55 Cloudy 68 20 64 18 88 88 WNW 10 17 29.8 1009 10 16.0934 0 0
12:15 pm 12:15 Cloudy 68 20 66 19 94 94 WNW 13 20 29.8 1009 10 16.0934 0 0
12:35 pm 12:35 Cloudy 72 22 68 20 88 88 W 9 15 29.81 1009 10 16.0934 0 0
12:55 pm 12:55 Mostly Cloudy 73 23 64 18 74 74 WNW 10 17 29.81 1009 10 16.0934 0 0
1:15 pm 13:15 Cloudy 73 23 66 19 78 78 NW 8 13 29.82 1010 10 16.0934 0 0
1:35 pm 13:35 Partly Cloudy 77 25 66 19 69 69 NW 15 24 29.81 1010 10 16.0934 0 0
1:55 pm 13:55 Partly Cloudy 77 25 68 20 74 74 W 9 15 29.81 1010 10 16.0934 0 0
2:15 pm 14:15 Partly Cloudy 79 26 66 19 65 65 W 12 19 29.81 1010 10 16.0934 0 0
2:35 pm 14:35 Mostly Cloudy 79 26 66 19 65 65 WSW 7 11 29.81 1010 10 16.0934 0 0
2:55 pm 14:55 Mostly Cloudy 81 27 68 20 66 66 W 7 11 29.82 1010 10 16.0934 0 0
3:15 pm 15:15 Mostly Cloudy 81 27 66 19 62 62 W 5 7 29.82 1010 10 16.0934 0 0
3:35 pm 15:35 Cloudy 79 26 68 20 70 70 NNW 6 9 29.83 1010 10 16.0934 0 0
3:55 pm 15:55 Mostly Cloudy 81 27 68 20 66 66 WNW 6 9 29.83 1010 10 16.0934 0 0
4:15 pm 16:15 Mostly Cloudy 81 27 64 18 58 58 W 7 11 29.83 1010 10 16.0934 0 0
4:35 pm 16:35 Mostly Cloudy 82 28 68 20 62 62 WNW 6 9 29.83 1010 10 16.0934 0 0
4:55 pm 16:55 Sunny 82 28 68 20 62 62 WNW 6 9 29.83 1010 10 16.0934 0 0
5:15 pm 17:15 Sunny 84 29 68 20 58 58 W 6 9 29.83 1010 10 16.0934 0 0
5:35 pm 17:35 Sunny 84 29 68 20 58 58 W 7 11 29.83 1010 10 16.0934 0 0
5:55 pm 17:55 Sunny 86 30 68 20 55 55 W 5 7 29.84 1010 10 16.0934 0 0
6:15 pm 18:15 Sunny 86 30 66 19 52 52 W 6 9 29.84 1010 10 16.0934 0 0
6:35 pm 18:35 Sunny 86 30 64 18 49 49 W 5 7 29.84 1010 10 16.0934 0 0
6:55 pm 18:55 Sunny 84 29 64 18 51 51 WNW 8 13 29.85 1011 10 16.0934 0 0
7:15 pm 19:15 Sunny 82 28 64 18 55 55 W 5 7 29.86 1011 10 16.0934 0 0
7:35 pm 19:35 Sunny 82 28 64 18 55 55 W 5 7 29.86 1011 10 16.0934 0 0
7:55 pm 19:55 Sunny 81 27 66 19 62 62 Calm 29.88 1012 10 16.0934 0 0
8:15 pm 20:15 Sunny 79 26 66 19 65 65 W 3 6 29.88 1012 10 16.0934 0 0
8:35 pm 20:35 Clear 79 26 68 20 70 70 WSW 3 6 29.89 1012 10 16.0934 0 0
8:55 pm 20:55 Clear 77 25 66 19 69 69 WSW 5 7 29.9 1013 10 16.0934 0 0
9:15 pm 21:15 Clear 75 24 66 19 74 74 WSW 5 7 29.92 1013 10 16.0934 0 0
9:35 pm 21:35 Clear 75 24 64 18 69 69 SW 5 7 29.93 1013 10 16.0934 0 0
9:55 pm 21:55 Clear 73 23 66 19 78 78 WSW 5 7 29.94 1014 10 16.0934 0 0
10:15 pm 22:15 Clear 73 23 68 20 83 83 Calm 29.94 1014 10 16.0934 0 0
10:35 pm 22:35 Clear 73 23 66 19 78 78 Calm 29.94 1014 10 16.0934 0 0
10:55 pm 22:55 Clear 73 23 64 18 74 74 Calm 29.94 1014 10 16.0934 0 0
11:15 pm 23:15 Clear 73 23 64 18 74 74 NW 3 6 29.95 1014 10 16.0934 0 0
11:35 pm 23:35 Clear 73 23 64 18 74 74 Calm 29.96 1014 10 16.0934 0 0
11:55 pm 23:55 Clear 73 23 64 18 74 74 Calm 29.97 1015 10 16.0934 0 0

Powered by AerisWeather